Location: Burgberg
(50.1428°N, 11.0671°E)
Time: 16:00:14
(UTC+00:00)

Lacrosse 5 rocket - Pass Details

Date: 26 January 2020
Orbit: 465 x 632 km, 57.0° (Epoch: 19 February)

Event Time Altitude Azimuth Distance (km) Brightness Sun altitude
Exits shadow 04:27:56 36° 357° (N) 999 2.5 -23.9°
Maximum altitude 04:28:18 36° 8° (N) 986 2.6 -23.9°
Drops below altitude 10° 04:32:28 10° 76° (ENE) 1,959 5.1 -23.2°
Sets 04:34:51 0° 85° (E) 2,837 6.4 -22.8°
